Location: Melque
(41.0517°N, 4.4694°W)
Time: 18:43:27
(UTC+00:00)

YAOGAN 1 - Pass Details

Date: 11 December 2025
Orbit: 605 x 607 km, 97.8° (Epoch: 15 January)

Event Time Altitude Azimuth Distance (km) Brightness Sun altitude
Rises 18:28:33 0° 156° (SSE) 2,851 5.9 -18.0°
Reaches altitude 10° 18:30:44 10° 152° (SSE) 1,951 5.0 -18.4°
Maximum altitude 18:34:54 58° 74° (ENE) 713 2.5 -19.2°
Drops below altitude 10° 18:39:05 10° 356° (N) 1,966 5.0 -19.9°
Sets 18:41:18 0° 352° (N) 2,874 5.9 -20.3°
